Temp
20 17 18 18 19 21 21 23 24 24 26 25 23 22 21 23 23 22 21 20 20 20 22 22 22 21 22 21 21 21 21 21 21 21 20 20 19 19 19 19 20 20 20 19
17 19 19 20 20 21 22 22 22 23 25 26 24 23 22 22 23 23 22 21 21 20 20 22 22 21 21 22 22 21 21 21 21 21 21 20 20 20 19 19 19 19 20 20
21 19 20 21 20 20 20 21 21 23 24 25 23 22 21 22 23 23 23 22 21 21 21 21 22 22 22 22 22 22 22 22 21 21 21 20 20 19 19 19 19 19 19 20
19 21 21 20 20 21 17 21 23 23 23 22 24 21 20 22 22 23 23 23 22 22 22 22 21 22 23 23 23 22 22 22 22 21 21 21 20 20 20 19 19 19 19 20
20 20 21 21 22 21 22 23 22 23 22 22 22 21 21 21 21 22 23 23 23 23 23 23 23 24 24 24 24 23 23 22 22 22 22 21 21 21 21 20 20 20 20 20
21 22 22 21 22 22 22 23 19 18 18 19 21 21 20 19 22 23 23 23 23 23 23 23 25 24 24 23 23 24 23 23 22 22 22 21 21 21 21 20 20 20 20 20
21 22 23 22 21 21 21 19 17 18 18 21 20 20 24 21 24 24 24 24 24 23 23 23 24 23 24 24 24 24 24 23 23 23 22 22 22 21 21 21 21 20 20 20
19 19 21 21 21 21 20 18 15 17 17 20 18 20 21 24 25 25 26 26 25 24 23 23 25 25 24 25 25 24 24 24 24 23 23 23 22 22 22 21 21 21 21 20
18 19 22 22 22 23 19 20 19 18 18 18 18 21 24 24 23 24 25 26 26 25 24 24 24 26 25 25 26 26 25 25 24 24 24 23 23 22 22 22 21 21 21 21
20 20 21 22 23 22 20 20 20 14 19 19 18 20 22 22 24 23 23 25 26 26 25 25 25 25 26 26 26 26 26 26 26 26 25 24 24 23 23 22 22 21 20 21
13 18 21 20 21 23 19 20 18 19 15 18 18 19 19 22 24 26 26 26 27 27 27 27 27 27 25 26 25 26 26 26 26 26 25 25 24 23 23 23 22 21 21 21
12 11 17 20 22 23 24 21 17 17 18 17 17 20 23 23 24 23 26 28 29 29 30 28 28 27 25 25 26 27 27 26 26 26 26 26 25 24 24 23 23 22 21 21
11 11 15 19 21 21 21 21 21 21 16 19 19 21 23 22 24 26 24 28 29 30 29 28 27 26 26 26 26 27 27 28 27 26 26 26 25 25 25 24 24 23 22 22
11 9 12 15 15 14 16 19 20 22 22 22 22 22 24 23 23 23 26 30 31 31 31 29 27 27 27 27 27 28 28 28 27 26 26 26 26 26 26 25 24 24 23 22
9 10 11 12 13 14 16 17 18 19 22 22 23 22 21 21 21 23 28 29 28 29 31 30 29 28 28 27 28 27 28 27 27 26 25 26 26 26 26 26 25 25 24 23
6 9 10 11 14 15 15 16 18 20 20 21 23 21 21 24 26 24 26 29 28 30 31 32 30 28 28 28 29 29 29 29 27 28 28 27 25 26 26 26 26 25 25 24
6 7 9 10 12 13 15 19 19 20 21 21 21 22 23 21 20 22 28 29 30 32 32 32 32 30 29 29 29 29 30 30 29 29 30 28 27 26 27 26 26 26 25 25
6 7 7 8 11 13 18 17 20 22 22 21 21 22 23 24 28 30 31 31 31 31 32 32 32 32 31 30 29 30 29 29 30 29 27 28 27 28 26 25 26 26 26 25
7 6 7 9 9 15 16 18 16 15 17 22 22 22 21 26 27 24 29 29 31 33 32 32 33 33 32 31 31 30 30 30 28 28 27 27 28 28 27 26 27 26 26 26
7 9 9 8 10 13 16 16 16 15 15 19 20 23 23 21 21 24 29 29 31 32 31 33 33 31 31 31 30 30 30 30 29 28 30 30 29 28 28 28 28 27 26 25
6 7 7 9 10 12 14 14 16 17 19 14 13 13 20 21 26 30 32 30 30 31 32 33 32 31 31 30 31 31 31 30 31 30 28 28 29 29 30 30 26 25 25 25
6 6 6 7 8 11 14 15 16 14 13 13 13 13 14 23 29 29 30 29 29 30 30 31 31 30 30 30 31 31 31 32 29 27 26 26 27 28 26 25 24 23 24 23
7 8 8 9 10 11 14 15 15 12 13 13 13 14 16 19 26 28 28 26 26 27 29 30 31 30 30 29 28 28 27 26 26 25 24 24 23 22 22 21 21 20 19 19
7 7 8 9 11 12 13 14 12 13 14 14 13 15 18 20 22 24 24 24 24 24 26 26 27 27 27 27 27 27 26 26 25 25 25 24 23 22 20 19 19 18 18 18
6 5 6 8 10 12 14 12 14 15 15 13 14 16 18 21 18 20 20 21 22 22 23 24 24 24 23 24 24 25 25 25 25 24 23 22 21 20 19 19 18 19 19 19
6 6 6 8 10 12 12 12 13 17 13 13 16 16 16 18 18 19 19 20 21 22 22 22 21 22 21 21 22 23 24 24 24 24 23 21 20 19 19 18 17 18 18 19
Height
1467 1477 1474 1476 1475 1477 1481 1481 1480 1474 1467 1472 1477 1477 1473 1476 1482 1485 1487 1493 1498 1499 1503 1509 1514 1518 1523 1527 1531 1535 1539 1543 1547 1550 1554 1557 1560 1564 1566 1569 1572 1574 1576 1577
1468 1464 1465 1469 1472 1474 1478 1482 1482 1475 1468 1471 1472 1474 1470 1472 1469 1471 1478 1487 1489 1495 1502 1505 1509 1514 1517 1521 1524 1529 1533 1538 1542 1546 1550 1554 1557 1560 1563 1566 1569 1571 1573 1574
1450 1453 1458 1464 1469 1474 1476 1478 1480 1480 1470 1468 1473 1479 1475 1471 1473 1479 1481 1479 1488 1491 1493 1497 1502 1506 1510 1514 1518 1522 1527 1532 1537 1541 1547 1550 1553 1556 1558 1560 1563 1566 1569 1572
1451 1446 1450 1459 1462 1464 1483 1465 1469 1475 1483 1496 1471 1503 1478 1469 1470 1470 1474 1478 1479 1484 1488 1492 1496 1499 1501 1505 1511 1517 1523 1528 1532 1537 1541 1544 1546 1549 1552 1555 1559 1562 1565 1567
1437 1439 1447 1452 1447 1456 1462 1458 1466 1471 1481 1482 1479 1493 1475 1466 1472 1467 1466 1467 1470 1475 1480 1483 1487 1490 1493 1499 1504 1510 1516 1522 1526 1530 1534 1537 1541 1545 1549 1552 1555 1557 1561 1563
1429 1428 1434 1437 1442 1447 1452 1459 1472 1480 1487 1500 1479 1484 1479 1470 1457 1457 1459 1462 1463 1469 1473 1476 1479 1484 1490 1495 1499 1504 1508 1513 1518 1523 1528 1531 1535 1540 1543 1547 1551 1553 1557 1559
1429 1429 1425 1427 1443 1445 1451 1472 1504 1505 1504 1477 1466 1479 1451 1442 1437 1439 1444 1448 1451 1458 1466 1470 1473 1477 1481 1486 1490 1495 1501 1505 1511 1516 1521 1524 1529 1534 1538 1542 1546 1549 1552 1554
1437 1446 1423 1421 1426 1440 1449 1465 1496 1507 1501 1480 1471 1467 1446 1428 1429 1431 1433 1435 1445 1453 1456 1459 1463 1468 1470 1475 1482 1487 1492 1497 1502 1507 1513 1519 1524 1528 1532 1536 1540 1544 1547 1550
1433 1430 1405 1408 1414 1423 1449 1455 1449 1476 1476 1483 1467 1443 1426 1422 1425 1426 1426 1432 1435 1440 1445 1447 1451 1458 1463 1465 1471 1477 1482 1489 1494 1499 1506 1511 1516 1521 1525 1531 1535 1538 1542 1546
1409 1426 1406 1405 1412 1417 1425 1433 1461 1480 1483 1488 1467 1453 1441 1428 1422 1421 1423 1423 1424 1430 1435 1438 1442 1447 1452 1456 1460 1468 1474 1479 1485 1491 1496 1503 1509 1514 1519 1523 1528 1531 1536 1540
1418 1416 1412 1406 1410 1411 1428 1433 1440 1445 1467 1471 1479 1451 1417 1415 1409 1408 1409 1410 1413 1418 1421 1425 1428 1434 1441 1448 1453 1457 1463 1470 1476 1482 1488 1494 1500 1506 1511 1516 1521 1524 1529 1533
1425 1430 1424 1413 1398 1397 1401 1415 1430 1453 1459 1453 1461 1438 1399 1395 1395 1400 1401 1402 1403 1408 1412 1416 1419 1425 1433 1437 1442 1447 1454 1460 1465 1472 1478 1484 1492 1497 1502 1508 1514 1518 1521 1526
1428 1435 1434 1419 1408 1399 1407 1406 1408 1415 1433 1435 1450 1427 1396 1395 1398 1398 1398 1396 1398 1401 1405 1408 1414 1419 1422 1427 1434 1439 1444 1449 1456 1462 1469 1475 1481 1487 1493 1499 1506 1510 1515 1518
1429 1439 1438 1435 1430 1430 1425 1407 1404 1406 1417 1419 1412 1416 1401 1399 1399 1394 1393 1392 1394 1397 1398 1401 1406 1409 1413 1416 1422 1429 1435 1441 1447 1453 1458 1464 1469 1475 1483 1490 1496 1501 1505 1508
1435 1439 1436 1434 1428 1424 1420 1414 1409 1409 1401 1407 1406 1406 1404 1400 1395 1390 1385 1387 1391 1392 1394 1394 1397 1400 1404 1409 1413 1418 1424 1432 1439 1444 1449 1452 1458 1466 1474 1480 1486 1491 1495 1499
1440 1441 1439 1436 1422 1414 1416 1407 1402 1400 1402 1399 1395 1397 1385 1384 1384 1384 1382 1383 1383 1385 1386 1388 1390 1395 1398 1401 1405 1409 1415 1420 1427 1433 1436 1442 1449 1456 1462 1469 1475 1480 1484 1489
1446 1443 1440 1436 1425 1422 1406 1390 1389 1389 1386 1388 1393 1387 1382 1378 1377 1378 1378 1378 1379 1380 1381 1383 1385 1387 1391 1394 1397 1402 1407 1412 1416 1421 1426 1431 1437 1443 1450 1457 1463 1468 1472 1478
1444 1444 1441 1439 1427 1425 1387 1375 1372 1371 1370 1370 1373 1372 1372 1369 1365 1365 1368 1371 1371 1374 1376 1377 1379 1381 1383 1387 1391 1395 1401 1403 1408 1411 1416 1421 1426 1432 1439 1446 1450 1456 1461 1465
1432 1440 1440 1434 1430 1394 1384 1377 1380 1385 1371 1359 1363 1364 1362 1361 1360 1355 1357 1360 1364 1367 1367 1368 1371 1372 1375 1379 1385 1389 1394 1398 1400 1403 1407 1412 1416 1422 1428 1433 1437 1443 1450 1454
1425 1427 1430 1430 1420 1404 1375 1375 1373 1375 1382 1356 1356 1350 1351 1356 1369 1358 1350 1353 1357 1360 1362 1363 1364 1366 1369 1374 1381 1385 1388 1388 1391 1395 1398 1402 1407 1412 1416 1421 1426 1432 1438 1443
1427 1427 1425 1420 1413 1392 1373 1370 1368 1380 1361 1356 1358 1354 1349 1346 1344 1343 1343 1346 1350 1354 1358 1359 1359 1361 1363 1369 1373 1376 1379 1381 1383 1388 1392 1395 1398 1402 1406 1412 1419 1424 1429 1432
1420 1422 1421 1422 1412 1395 1367 1370 1371 1360 1353 1354 1350 1344 1342 1339 1335 1339 1340 1342 1345 1348 1351 1354 1356 1358 1361 1364 1368 1370 1374 1376 1380 1384 1388 1390 1391 1394 1399 1402 1408 1410 1418 1421
1411 1402 1401 1399 1383 1369 1360 1362 1356 1358 1355 1349 1346 1334 1332 1333 1331 1332 1337 1340 1344 1344 1346 1350 1352 1355 1358 1362 1364 1367 1372 1375 1378 1383 1385 1389 1393 1397 1401 1403 1406 1411 1414 1416
1399 1397 1393 1389 1370 1365 1362 1360 1354 1353 1346 1346 1339 1328 1322 1325 1329 1329 1333 1338 1343 1344 1345 1349 1350 1355 1357 1359 1362 1366 1369 1371 1373 1377 1380 1383 1387 1393 1398 1403 1406 1409 1413 1417
1397 1397 1389 1380 1366 1364 1356 1354 1350 1345 1341 1341 1335 1324 1321 1319 1327 1328 1330 1337 1342 1345 1345 1349 1351 1355 1358 1360 1362 1364 1366 1368 1370 1372 1375 1378 1382 1386 1390 1394 1399 1405 1406 1408
1384 1381 1382 1365 1361 1359 1353 1348 1345 1335 1339 1339 1333 1324 1327 1321 1323 1328 1330 1335 1340 1343 1346 1349 1353 1356 1358 1359 1361 1363 1366 1368 1370 1370 1371 1374 1378 1381 1385 1390 1394 1394 1395 1398
Wind_Speed
10 5 13 10 5 5 5 4 4 2 2 4 7 6 9 23 26 28 33 34 36 42 44 39 38 38 36 35 33 32 31 30 29 32 32 31 29 25 21 19 18 16 13 12
5 17 10 9 7 8 5 5 8 4 6 2 4 8 10 17 29 37 36 33 38 38 36 42 41 41 41 38 36 35 34 34 33 33 30 30 29 28 26 23 21 18 15 12
19 5 12 12 7 10 5 13 6 5 4 2 4 6 7 13 5 22 27 36 34 36 40 42 44 45 44 44 42 40 37 36 37 36 33 31 30 30 30 29 27 24 21 17
6 8 18 8 13 12 9 6 6 7 4 4 3 5 5 13 20 16 24 31 34 41 40 41 44 47 47 46 44 43 42 40 38 37 37 35 32 30 29 29 30 30 27 22
11 15 15 17 14 10 8 8 9 6 6 2 3 1 6 10 14 17 22 32 37 41 44 47 47 48 49 46 45 44 44 43 41 39 38 36 35 30 26 23 22 24 25 24
8 6 14 11 7 11 8 4 6 5 4 7 10 9 5 8 19 20 21 32 37 39 44 47 48 48 50 49 48 47 47 47 46 43 41 41 38 34 29 27 25 24 26 26
5 13 3 6 8 5 7 8 2 2 3 11 8 8 14 10 16 22 25 38 42 43 43 47 50 47 51 52 52 49 49 50 49 47 44 41 39 37 30 28 28 26 29 28
10 6 18 6 10 11 9 9 6 8 4 7 7 9 7 11 16 29 33 42 39 38 44 49 58 55 55 53 53 54 52 51 52 49 47 43 40 38 33 31 27 28 31 28
8 10 3 9 6 17 6 11 11 5 2 2 5 6 6 5 11 16 28 29 34 40 44 51 55 59 58 57 55 56 54 53 52 51 49 47 44 41 37 33 30 31 30 31
3 1 6 18 6 8 10 9 4 1 6 6 5 4 6 10 13 14 9 23 33 38 44 48 53 54 59 60 57 55 55 53 51 50 52 51 47 43 38 34 33 31 31 31
5 4 3 9 11 18 4 6 3 6 6 7 0 6 8 10 14 18 19 31 37 41 47 51 55 57 55 56 57 56 55 55 55 53 53 53 51 48 44 39 34 33 32 32
1 3 7 6 2 9 21 9 7 6 8 6 4 7 4 10 11 13 20 28 39 37 39 44 49 49 47 53 55 55 55 53 55 53 52 53 51 50 47 43 37 35 33 34
6 2 2 4 8 3 5 10 12 10 3 12 8 7 6 4 7 15 17 27 31 31 32 35 40 44 48 50 52 53 53 53 54 53 53 53 53 52 50 45 40 39 36 36
3 2 3 3 2 4 6 7 8 17 14 15 18 9 3 6 9 10 22 31 30 28 24 28 36 43 47 49 51 51 51 51 52 52 52 52 53 52 49 46 43 40 40 39
3 0 2 3 10 7 12 15 14 13 22 15 13 18 10 9 11 19 33 30 25 25 25 24 30 40 46 49 50 50 50 49 49 50 50 52 52 50 47 47 45 41 42 42
5 2 2 3 9 10 11 14 16 15 10 11 18 9 9 19 23 14 25 25 24 25 22 19 25 35 44 47 50 52 50 48 46 45 47 50 51 50 49 49 48 45 44 46
3 2 2 4 4 10 16 10 15 9 8 9 16 10 7 9 10 17 30 31 32 33 34 33 26 32 39 45 47 50 48 48 47 44 42 46 48 49 49 49 51 51 48 47
4 1 1 4 2 8 4 9 7 18 17 15 8 12 15 17 29 37 39 42 42 42 43 38 32 31 36 41 45 47 45 48 46 47 47 46 46 45 47 49 52 53 53 51
16 5 3 4 6 13 18 5 4 4 8 13 14 9 10 30 29 16 32 41 37 33 29 28 24 29 34 39 42 46 48 47 48 50 48 47 45 45 46 49 50 53 57 56
13 14 6 2 5 8 2 2 8 4 6 7 7 18 15 10 8 10 32 26 29 29 22 21 17 19 27 37 43 43 44 46 48 48 45 45 44 45 46 48 48 50 53 57
4 6 16 13 7 6 5 5 7 8 7 17 15 20 19 11 19 36 29 28 27 25 23 20 15 16 21 29 36 42 43 43 42 44 44 44 43 44 44 45 48 50 51 52
7 7 6 7 6 17 1 4 5 3 15 19 25 31 26 31 31 31 21 13 19 22 22 19 17 19 20 18 20 25 29 26 34 38 40 40 40 41 45 47 48 48 47 53
6 9 4 9 6 6 12 16 13 12 13 18 28 36 33 31 38 28 21 19 17 18 16 15 15 15 15 14 16 19 23 26 26 30 32 33 35 37 39 40 41 43 42 44
4 5 4 6 12 12 14 12 11 8 10 19 23 23 22 26 25 26 23 20 17 17 18 16 15 12 10 5 7 14 18 21 23 23 26 25 27 29 29 30 31 33 33 34
6 4 4 8 21 17 19 9 9 6 7 8 4 8 16 29 27 30 30 27 23 22 21 19 18 16 15 12 10 9 6 5 7 13 13 13 18 22 23 24 26 24 27 31
9 10 8 9 10 14 8 10 6 3 3 2 14 19 22 35 36 33 31 27 24 23 21 21 20 17 15 14 13 12 11 10 7 4 4 6 8 12 16 18 9 17 27 27
Wind_Direction
180 174 214 199 186 160 189 205 215 234 232 159 218 238 195 181 185 186 190 191 198 209 207 206 209 213 215 214 215 214 211 207 203 203 206 210 214 215 215 218 220 227 228 226
119 220 200 179 196 185 188 229 254 305 263 168 255 233 188 182 197 194 189 193 200 210 206 212 213 217 220 217 215 216 214 212 206 208 213 220 221 223 224 227 231 235 233 236
200 221 168 184 180 195 207 216 186 206 343 276 106 309 170 212 209 205 205 199 207 208 208 212 214 219 222 222 219 217 215 215 215 216 216 222 226 231 229 227 233 236 239 237
207 220 188 165 204 179 214 177 156 164 129 218 142 265 249 204 208 202 202 203 206 216 218 219 219 219 221 226 224 223 221 219 219 219 221 223 226 227 229 234 241 244 245 241
209 183 184 203 199 175 218 151 188 163 191 175 231 38 259 172 208 215 210 212 209 211 218 222 226 223 222 223 226 225 225 224 222 221 223 224 227 231 233 235 241 237 229 235
189 197 185 194 170 177 161 102 54 48 112 243 217 186 235 183 211 217 219 218 215 212 215 220 228 229 228 225 227 228 227 226 225 224 224 226 228 231 229 230 235 229 228 229
196 222 193 153 162 164 145 113 301 290 199 239 181 190 227 211 205 207 212 219 216 212 214 217 220 225 229 228 228 229 230 229 228 228 227 227 230 231 233 230 231 229 221 224
181 220 205 184 190 185 182 153 163 204 209 228 125 226 242 192 213 215 221 219 219 215 216 218 223 224 228 229 228 230 231 230 230 231 231 229 232 232 233 233 233 229 226 230
173 239 216 170 160 165 192 194 178 81 268 42 221 297 312 183 205 211 222 221 219 216 216 222 225 226 228 231 227 230 231 233 233 233 234 232 232 232 234 235 235 231 231 228
221 232 204 205 129 188 167 150 150 13 196 238 276 248 219 195 202 209 221 217 225 220 219 222 227 225 228 232 235 231 232 234 233 234 236 235 234 234 235 236 235 234 230 231
14 126 304 121 201 193 129 181 128 153 162 206 291 254 207 206 215 208 213 215 221 221 222 225 229 231 227 231 232 235 234 233 235 236 238 237 236 236 236 236 235 235 233 230
7 111 221 201 228 224 214 188 149 146 222 247 167 245 245 227 202 202 228 228 235 235 239 234 233 228 219 225 229 233 236 236 238 238 239 240 238 238 238 238 236 236 236 232
331 359 75 58 295 165 190 216 193 217 90 211 193 241 261 220 207 238 238 238 237 234 237 233 226 220 223 223 227 232 235 240 240 238 239 240 239 237 239 239 237 236 236 234
43 78 101 216 299 358 314 294 205 208 224 231 233 267 309 249 235 241 238 246 251 249 247 240 227 222 225 227 229 233 236 239 239 237 238 239 239 236 237 238 237 236 236 236
82 355 337 238 281 252 248 262 269 244 224 221 234 236 229 242 223 235 241 242 242 248 258 252 240 227 225 226 230 234 236 235 236 238 238 241 240 238 235 236 237 237 237 237
358 253 147 274 274 300 284 267 258 253 256 258 252 247 197 220 230 249 248 246 240 238 247 263 248 233 225 227 229 232 235 238 234 236 241 241 239 238 237 233 235 235 237 238
327 212 129 254 304 322 297 258 242 238 209 208 234 227 244 239 214 225 238 242 242 251 260 262 260 243 234 233 234 231 236 236 234 234 237 238 237 239 238 233 231 234 235 238
200 211 193 235 303 250 236 305 279 233 232 223 225 221 208 225 234 240 239 242 251 252 253 254 253 252 246 241 237 239 235 236 237 237 232 233 235 237 238 235 232 233 234 237
204 158 256 201 214 290 303 318 39 36 281 246 208 219 220 223 240 253 244 247 243 253 263 241 247 255 238 236 237 236 233 236 238 235 235 235 235 236 237 237 237 234 235 236
197 209 197 184 210 230 223 176 273 185 258 329 290 218 212 184 226 251 251 251 244 238 240 248 253 241 237 236 230 241 239 237 237 238 239 240 239 238 239 241 240 238 237 240
154 190 215 226 249 281 248 309 308 205 269 320 317 288 269 198 223 239 251 247 240 235 246 235 225 225 224 221 224 235 240 244 250 250 244 240 241 242 245 246 244 242 240 240
173 175 195 215 242 241 25 279 201 334 312 312 301 281 274 239 223 230 245 239 222 211 217 219 208 216 224 218 227 234 239 250 247 245 244 243 243 246 244 243 244 242 245 243
226 208 209 200 220 254 164 219 271 284 285 309 293 285 275 251 235 226 207 185 179 176 171 174 188 201 214 224 231 236 246 249 250 249 252 253 255 254 252 250 248 244 242 242
261 337 260 267 265 240 233 256 271 279 321 298 294 275 256 220 206 170 157 151 147 136 132 132 137 134 131 151 218 241 250 256 261 263 263 265 264 260 254 247 248 249 244 243
235 339 264 284 254 278 218 236 260 294 312 300 325 141 161 164 137 137 129 125 120 113 109 106 100 94 84 78 71 57 30 345 278 262 264 255 251 247 240 235 237 234 230 241
220 242 225 236 262 240 252 241 227 102 343 7 107 103 107 128 125 122 112 110 109 103 98 92 87 81 73 58 48 39 36 27 13 352 292 259 241 229 228 213 191 212 229 235